Theta_e
314 314 318 320 319 318 322 320 322 325 326 321 323 327 330 333 334 331 334 337 335 333 330 330 328 337 333 329 327 331 331 333 335 333 332 331 331 333 333 332 331 332 331 332 333 332 332 328 328
313 316 320 313 319 321 320 317 324 323 321 322 323 326 331 335 333 336 338 337 334 330 329 330 333 336 333 328 327 330 330 332 334 333 331 331 330 330 330 330 329 329 328 331 330 331 330 327 327
316 317 316 316 316 320 318 317 320 322 319 322 322 323 329 335 332 336 338 336 333 329 330 329 334 335 333 328 327 330 331 330 331 332 331 332 331 331 330 328 327 329 328 327 329 330 328 326 327
316 314 312 318 321 319 316 319 321 319 319 320 323 329 329 333 334 337 338 336 333 328 327 328 333 335 334 330 326 328 330 329 331 330 331 329 330 331 328 329 329 329 328 328 328 328 325 325 324
315 310 316 318 319 317 318 318 317 319 319 319 321 327 335 334 335 337 339 336 332 328 325 328 330 334 333 331 327 326 329 328 329 330 329 327 327 325 329 330 328 328 328 327 323 322 323 323 322
311 311 315 318 317 317 318 316 315 316 317 318 325 330 331 335 338 339 339 337 332 328 324 328 327 333 333 333 329 324 326 328 328 329 329 328 326 324 328 328 328 328 327 325 317 316 320 320 322
313 313 315 314 316 316 317 314 315 315 316 318 324 332 332 333 338 338 338 337 335 331 324 326 326 329 334 334 331 326 322 325 325 325 327 327 324 326 328 326 326 325 326 322 318 316 316 319 321
312 313 317 315 315 316 315 314 312 316 316 314 325 332 335 333 337 338 338 337 335 329 324 326 326 325 332 334 331 328 323 321 323 320 323 325 324 323 324 325 324 323 323 319 319 315 317 319 319
312 314 316 318 315 317 314 315 314 314 315 318 320 327 329 335 335 338 337 336 334 330 326 325 326 326 333 333 331 329 325 320 321 321 320 324 324 323 323 323 323 322 320 319 319 316 317 319 319
311 314 316 316 314 314 314 314 312 315 317 320 332 332 334 335 335 337 336 335 334 332 329 326 325 327 331 332 331 330 327 322 318 320 320 322 322 322 322 323 323 322 320 320 318 316 317 319 319
314 314 314 314 314 313 313 312 312 313 316 318 332 334 333 334 333 334 335 335 335 334 332 329 326 325 327 330 330 329 328 324 319 318 321 320 321 323 322 321 321 319 319 319 318 319 318 318 319
314 314 312 313 312 313 313 311 312 312 312 313 331 334 333 333 333 333 333 335 334 334 334 334 332 326 325 327 328 329 328 325 321 319 324 324 324 324 323 320 318 317 318 318 317 318 319 319 318
312 312 312 311 311 312 313 313 312 311 313 314 331 333 333 334 334 334 334 335 334 333 333 334 333 331 330 329 327 327 327 325 324 319 324 324 324 324 323 320 316 316 317 317 317 317 318 318 317
313 312 311 311 312 312 314 313 313 313 312 320 332 333 332 333 333 334 334 334 334 333 333 332 332 332 332 331 331 329 327 326 326 325 322 323 324 323 323 321 319 316 318 318 317 317 316 316 316
312 313 311 311 311 312 312 315 314 312 312 318 330 332 331 331 332 334 335 334 334 334 333 333 332 332 332 331 330 330 330 330 329 328 327 323 323 323 321 322 322 321 318 318 317 317 317 317 316
311 310 312 311 310 311 312 315 312 309 309 316 318 321 327 328 330 332 335 335 335 334 334 334 333 332 332 331 331 330 330 330 329 329 329 328 324 322 322 323 323 322 321 319 317 317 317 317 317
309 309 310 311 309 311 310 311 309 307 308 309 311 313 317 321 324 330 329 329 331 334 334 332 333 332 332 332 331 330 330 329 329 329 329 329 328 322 323 323 323 322 322 320 317 317 317 317 317
311 310 309 310 310 310 310 309 309 308 306 308 305 304 304 305 310 323 330 330 331 331 333 333 332 332 332 331 331 331 331 330 329 329 328 328 328 326 322 323 323 323 322 321 319 317 317 316 316
310 310 310 309 309 311 309 309 308 307 307 305 303 302 302 303 306 310 316 328 330 332 333 334 333 332 332 331 331 331 331 330 330 329 328 327 328 328 325 322 323 323 322 321 320 317 316 316 314
308 309 309 310 309 308 308 308 308 306 306 305 305 303 303 304 304 306 309 315 326 329 331 333 333 333 332 331 330 330 330 329 329 329 328 328 327 327 327 324 322 323 322 321 320 318 317 315 314
308 308 308 310 310 309 309 306 306 306 305 306 305 306 306 305 305 305 306 309 315 325 329 332 333 333 333 332 331 330 330 329 329 329 328 328 328 327 327 327 324 322 322 322 321 319 318 315 314
308 308 308 310 307 308 305 304 305 306 305 305 306 307 307 305 304 304 306 307 309 317 326 330 332 333 333 333 332 330 330 329 328 328 327 327 328 329 328 327 326 325 323 322 322 320 319 316 314
308 308 309 308 307 307 307 305 305 305 307 306 305 305 306 306 303 304 306 308 308 311 319 327 330 332 333 332 332 331 330 329 329 328 327 327 326 326 328 328 327 326 325 323 322 321 319 318 316
306 307 306 305 305 308 306 306 306 306 307 307 306 304 303 302 301 300 307 307 308 310 314 318 321 327 331 332 332 331 331 330 329 328 328 327 327 325 325 327 328 327 326 325 324 323 321 321 318
307 306 307 308 308 309 305 306 307 306 305 304 305 303 305 303 304 304 306 307 310 311 311 311 311 310 312 320 330 332 332 331 330 330 329 328 328 326 325 326 326 327 327 326 326 323 323 322 319
307 307 309 309 310 307 305 307 308 306 305 303 304 304 304 305 304 305 306 309 313 314 314 314 313 312 311 309 309 315 330 331 330 331 330 328 325 326 324 325 326 326 325 326 325 324 323 321 318
308 307 306 307 298 308 306 305 306 306 305 305 306 304 304 304 304 305 307 309 312 314 315 316 315 313 310 308 307 307 311 325 329 330 330 327 324 323 324 326 326 326 325 324 323 322 320 319 315
307 307 310 307 306 308 305 306 306 306 306 304 303 305 304 305 305 304 305 308 310 313 315 315 315 316 314 313 313 313 312 316 325 326 326 324 323 324 326 326 325 324 323 322 320 318 315 315 313
307 307 307 308 307 308 306 304 302 306 306 304 303 302 302 304 304 303 304 307 309 310 313 314 315 315 316 316 317 319 320 321 322 322 322 322 323 325 325 323 323 321 319 317 316 314 313 311 310
307 308 308 308 306 305 307 306 303 302 303 303 303 301 301 301 303 303 304 305 306 308 312 313 312 313 314 315 316 317 318 318 319 319 320 322 322 321 321 320 317 315 314 313 312 311 308 307 305
Wind_Speed
12 11 9 4 4 5 2 2 3 3 3 3 2 8 9 3 3 3 10 13 24 22 19 17 16 15 13 14 16 18 15 15 16 17 16 18 17 17 17 17 19 20 17 17 19 20 19 20 22
9 7 4 2 4 2 4 1 6 4 7 8 8 5 7 2 3 9 15 23 25 23 21 19 17 17 14 14 16 18 15 15 15 15 16 17 18 18 18 18 19 18 18 19 19 19 20 20 19
5 4 3 4 3 3 4 4 5 3 5 4 4 6 4 3 5 13 15 28 26 23 21 20 19 17 14 14 16 17 15 12 15 15 15 16 17 17 18 19 19 20 19 18 19 18 20 20 19
4 6 4 4 4 4 5 7 6 6 4 7 5 6 2 4 15 14 31 26 25 23 21 21 21 18 15 14 16 17 15 17 14 14 15 16 16 17 18 18 19 19 18 17 17 17 18 18 17
4 3 3 2 5 3 2 4 6 6 4 3 3 3 3 12 11 28 29 26 26 23 21 20 20 19 17 15 15 15 16 16 14 15 15 15 14 14 15 18 17 16 15 16 17 17 17 16 16
4 3 3 4 4 1 1 4 7 5 5 4 6 5 4 7 29 34 30 25 23 25 22 20 19 19 17 16 14 14 15 15 14 15 16 14 15 14 13 13 14 15 14 14 15 15 15 16 14
6 4 5 6 5 3 6 7 7 8 7 3 9 5 1 9 29 34 29 24 23 22 23 22 19 20 17 16 14 13 13 14 14 14 14 14 14 14 13 11 12 13 13 12 13 13 14 17 15
5 4 3 6 6 6 4 6 7 9 5 7 7 7 5 12 27 32 28 25 24 23 22 23 21 21 20 18 15 14 13 13 14 13 13 13 13 14 12 10 7 10 12 13 12 13 14 13 13
3 3 2 5 7 5 4 5 2 1 7 3 0 7 8 32 30 32 28 27 26 24 23 23 22 21 21 20 17 14 13 13 14 13 12 14 13 12 12 10 8 8 9 11 11 12 13 11 10
3 3 6 3 4 7 6 6 8 5 4 4 3 5 27 34 32 25 23 23 28 26 25 23 23 22 21 20 19 16 15 14 14 15 14 13 11 12 13 10 9 9 9 10 10 10 12 10 7
3 5 2 3 2 5 10 7 3 10 3 7 10 13 17 20 23 23 24 30 30 27 26 24 23 23 23 23 21 19 16 15 15 15 15 14 13 11 11 10 10 9 10 11 10 8 7 6 6
2 4 2 5 6 5 9 8 6 6 7 9 14 22 21 16 21 22 24 29 29 29 27 24 24 25 24 22 22 21 19 18 17 18 17 14 14 11 10 9 9 10 11 12 9 6 6 5 5
1 3 2 4 6 4 4 5 7 7 1 8 14 14 16 18 23 22 29 29 28 27 24 25 26 26 25 23 23 22 20 20 18 19 18 14 16 12 11 10 10 11 12 11 9 7 6 6 6
1 3 0 3 2 3 3 2 5 5 5 10 17 15 12 17 22 22 24 30 30 29 28 26 26 25 26 26 22 22 21 20 19 19 20 16 16 14 14 13 12 13 11 10 9 7 7 7 8
2 4 2 3 2 1 1 1 6 3 5 12 13 12 10 14 19 28 33 33 34 33 31 30 28 27 27 26 24 22 21 21 20 21 20 20 19 18 17 16 14 13 13 11 11 11 10 10 10
11 3 4 2 5 1 2 8 4 6 9 10 10 9 10 12 23 28 32 35 33 34 36 34 30 30 30 29 27 24 21 23 22 21 21 21 22 21 20 19 17 15 14 14 14 14 13 13 13
1 5 4 3 6 2 3 7 5 2 9 9 9 9 10 9 15 29 35 38 38 37 36 37 36 32 32 31 30 28 25 24 24 23 23 23 22 24 23 22 20 17 17 17 16 16 16 16 15
4 3 4 6 6 3 3 7 6 2 7 10 10 8 8 9 14 29 35 36 36 37 38 37 38 39 33 30 32 32 30 28 27 26 26 24 24 24 26 25 24 22 21 21 20 20 19 19 17
6 6 5 3 3 4 7 6 10 6 4 8 9 9 10 12 21 32 33 37 35 37 38 39 40 38 38 33 32 33 35 33 30 29 28 26 26 25 27 28 27 26 26 24 22 21 20 20 16
6 5 3 2 1 3 2 11 10 5 7 8 10 10 11 8 8 17 28 29 38 40 40 41 42 40 39 37 32 29 28 29 32 30 30 29 27 26 26 29 29 28 28 27 25 24 24 21 17
6 6 5 4 2 1 2 7 6 7 5 7 9 13 9 13 10 9 16 28 31 34 42 41 42 42 40 39 33 30 26 27 27 32 32 31 30 28 27 26 30 30 29 30 29 27 26 24 15
6 7 6 7 5 4 3 5 5 4 8 7 13 14 15 11 7 6 11 17 30 35 35 41 40 40 39 39 36 35 30 27 32 30 32 31 30 29 29 30 29 31 33 33 33 29 29 25 25
8 7 8 5 3 3 2 2 7 4 7 11 10 12 15 12 8 9 13 19 24 29 27 30 33 35 35 37 38 37 32 29 24 30 30 27 29 30 33 31 33 32 32 33 34 32 31 31 28
9 7 7 4 2 2 7 6 5 5 9 6 5 7 9 8 8 8 7 9 12 15 19 20 20 24 30 32 36 36 33 29 28 26 26 25 28 25 28 31 32 31 33 34 32 31 30 28 28
4 7 2 1 2 5 2 3 11 6 10 7 9 8 3 4 5 5 6 6 7 9 10 12 14 15 17 20 27 34 35 34 32 31 27 27 26 25 26 26 29 32 34 32 33 31 28 27 27
7 8 6 7 5 5 4 6 6 8 8 9 6 3 4 6 6 7 7 7 5 5 6 8 12 15 16 19 22 22 28 33 33 30 27 25 22 21 21 23 24 25 25 25 26 28 26 23 21
5 6 6 6 3 3 4 5 11 7 9 2 4 4 7 7 6 7 8 9 10 9 7 7 7 8 11 14 17 20 22 24 26 24 25 24 19 17 17 17 19 20 20 21 21 21 20 15 14
6 8 2 3 4 4 4 5 5 7 8 8 8 9 8 5 7 7 9 12 11 10 9 8 8 7 6 7 9 11 15 18 17 18 17 15 16 14 14 15 15 15 15 15 14 12 12 8 8
4 5 2 4 5 5 2 6 8 10 11 10 11 8 9 9 8 7 8 12 11 10 9 9 8 8 9 8 9 10 11 13 15 14 11 10 11 12 13 13 11 11 11 9 8 7 6 5 5
3 7 9 5 5 3 3 8 6 10 10 8 9 9 8 7 6 5 8 11 11 11 12 12 10 10 9 9 10 9 11 11 11 9 8 9 11 10 10 10 10 9 7 5 5 7 8 8 8
Wind_Direction
320 332 330 29 46 63 292 225 158 118 51 348 65 113 116 72 101 190 153 153 154 149 152 152 144 140 123 109 116 117 105 101 93 94 91 91 86 91 91 93 93 88 93 92 86 88 80 88 88
335 350 38 79 87 57 270 263 157 148 137 128 90 89 56 74 90 120 129 159 154 151 153 150 145 145 126 115 120 122 113 112 98 94 94 92 92 94 93 97 96 95 93 94 93 90 84 88 92
347 12 76 90 110 178 210 174 178 117 156 116 91 56 110 143 110 142 160 158 154 153 155 151 147 148 133 122 122 124 115 113 111 101 99 99 99 100 96 99 102 98 94 94 95 92 91 92 94
15 25 34 86 247 259 193 175 160 131 51 65 115 71 47 248 152 157 155 158 156 153 158 156 153 149 142 132 126 128 126 119 115 112 107 105 107 100 103 104 104 101 100 100 95 92 93 91 91
57 57 77 82 278 278 105 196 159 115 116 110 127 142 52 147 145 153 155 160 158 155 159 160 160 152 149 141 132 133 136 134 125 117 119 116 113 111 105 108 101 99 98 94 92 92 93 89 92
48 93 90 197 264 64 187 218 136 123 139 162 77 98 173 165 151 156 161 161 162 157 161 163 163 160 156 150 143 139 141 140 137 130 128 121 112 107 120 113 104 97 97 95 96 92 96 85 95
116 95 191 167 206 186 204 168 151 146 143 167 146 103 256 156 159 161 161 161 163 164 162 165 164 167 164 162 154 147 146 145 146 144 136 135 126 123 121 118 117 107 102 105 101 92 103 92 95
106 97 151 200 185 221 199 173 153 138 186 125 144 163 185 198 160 163 162 163 165 168 169 168 168 170 170 169 165 158 154 154 149 148 147 143 137 138 141 133 127 125 119 118 112 102 114 101 88
101 68 197 214 164 217 183 143 184 74 114 72 83 155 183 166 158 159 161 165 167 171 174 175 175 174 173 173 173 170 165 162 159 155 152 154 147 146 146 140 143 143 124 124 122 113 123 115 96
101 134 219 221 207 191 179 143 149 112 109 29 41 55 147 164 159 156 162 167 169 175 178 182 182 181 180 181 180 179 176 173 167 164 163 167 161 154 158 158 160 150 142 141 136 129 131 129 114
176 195 226 276 286 206 160 140 139 127 214 200 172 151 158 168 169 168 174 177 179 179 180 185 189 189 189 189 188 186 184 181 177 171 169 172 171 170 175 178 181 161 155 155 149 146 150 148 133
211 259 267 315 330 141 168 126 135 171 213 179 170 161 162 175 186 182 183 183 183 183 188 188 193 193 197 198 197 194 192 188 185 181 181 185 184 188 191 194 188 178 170 171 171 171 166 163 164
168 270 73 307 6 41 126 131 184 218 195 150 141 163 173 181 191 195 197 194 189 188 199 199 198 197 198 203 204 203 203 201 193 191 195 203 200 204 205 207 200 190 182 186 194 194 196 203 203
187 262 120 319 3 46 138 130 148 237 108 140 156 179 185 186 192 194 198 198 197 196 198 205 208 210 208 205 208 210 209 210 203 199 205 210 207 215 215 208 205 205 207 207 209 213 213 217 220
281 233 330 242 263 182 152 315 216 145 142 161 177 186 191 201 198 203 203 204 203 204 202 204 209 213 214 216 218 216 215 213 217 212 209 217 216 220 219 216 212 211 213 218 217 222 224 226 231
198 139 188 247 172 311 110 240 256 188 161 189 189 193 199 205 211 216 211 211 210 211 210 208 210 216 219 220 220 221 220 221 222 226 222 223 223 224 222 224 224 221 221 222 224 227 230 236 240
24 166 175 282 199 133 163 242 242 195 180 191 205 207 210 216 220 221 219 218 217 217 217 217 214 213 219 222 223 224 224 226 227 228 231 234 227 225 225 230 234 227 229 231 231 233 239 245 250
161 147 173 204 216 175 189 256 268 276 190 198 207 228 234 230 231 227 223 221 219 218 220 222 219 216 214 222 225 228 226 227 230 231 232 234 235 230 227 229 233 231 230 230 231 234 240 251 258
174 175 175 231 190 146 210 248 250 253 236 233 234 223 228 230 234 234 229 224 221 221 219 219 217 215 215 211 220 223 226 228 230 233 235 237 238 235 231 232 233 232 235 236 235 239 243 248 254
154 159 216 306 157 143 213 253 251 243 235 212 227 240 239 235 238 239 222 217 217 219 219 216 217 216 217 214 215 220 226 231 236 236 239 239 237 239 240 237 237 238 237 237 237 238 242 247 241
190 172 169 198 156 63 338 286 254 256 237 232 239 232 236 225 227 229 222 216 215 214 218 216 216 217 218 218 216 216 221 228 235 238 240 240 242 242 242 247 243 243 244 245 242 241 242 246 241
195 188 154 146 147 199 152 268 301 261 258 223 240 239 239 227 226 225 228 227 219 219 218 219 219 219 220 218 215 213 210 212 221 229 239 244 244 245 243 243 243 243 244 246 249 247 246 247 250
220 138 144 141 123 92 310 65 273 275 270 252 241 238 237 231 205 220 229 237 230 220 216 215 219 220 220 219 219 218 215 221 224 226 232 238 246 251 248 245 241 243 244 247 250 251 249 251 249
147 91 48 56 84 263 199 174 251 212 222 261 280 257 246 233 215 210 203 186 180 191 202 206 207 211 219 222 223 224 220 220 221 225 225 238 240 251 253 250 246 249 246 247 249 252 253 255 253
130 105 39 2 306 225 159 205 243 251 258 230 259 261 245 173 154 151 152 159 155 164 187 208 216 217 211 210 219 227 232 232 227 230 236 236 238 239 250 249 249 250 249 250 253 254 258 257 255
176 161 157 183 201 220 116 223 248 243 278 242 263 204 155 153 171 167 167 165 157 184 216 237 244 243 237 231 223 218 224 233 234 237 243 246 251 250 260 258 252 252 253 250 251 254 259 259 262
198 196 153 105 34 59 230 288 303 262 263 246 204 164 197 197 183 173 162 168 173 177 185 198 209 221 229 231 227 224 221 224 228 231 241 247 249 254 256 251 247 246 249 252 251 251 250 245 249
195 145 91 3 131 240 254 257 226 263 244 215 209 207 215 196 191 186 177 178 176 170 177 185 193 191 190 194 199 207 215 219 216 219 227 226 224 233 236 234 232 235 239 236 240 232 237 236 234
140 182 152 137 158 181 199 249 217 206 222 200 227 203 202 203 206 191 179 178 176 175 179 180 190 194 196 186 184 184 184 185 183 187 191 203 216 217 216 208 215 220 226 211 206 202 210 224 249
244 185 191 174 217 239 166 245 194 216 222 214 225 204 207 208 194 182 178 177 178 183 187 193 190 198 193 192 189 175 169 163 166 181 183 185 180 180 188 188 181 173 176 196 226 236 237 239 247